STARLINK-3908, 52491

Orbit data source: Space-Track

STARLINK-3908, 52491 is a payload satellite owned by SpaceX/Seattle (US) in LEO that was launched on Fri, 06 May 2022 UTC via an FALCON 9 launch vehicle from the Air Force Eastern Test Range (AFETR). Payload-class satellites include a variety of spacecraft equipped with specific instruments for various scientific and technological missions. These include communications satellites like Starlink; space stations such as the ISS; scientific satellites like the Hubble; Earth observation satellites from companies like Planet Labs, Umbra, and HawkEye 360; GPS; miniature CubeSats for education and research; and military/defense satellites.

Loading next visibility...
Identifier
52491, 2022-049AS
Orbit
LEO
Country
Flag of USUS
Related business
Manufacturer
SpaceX/Seattle
Mission
Operational Commercial Communications
Bus & Motor
STARLINK, Unknown motor
Mass
297 kg wet, ~220 kg dry
Launch date (UTC)
2022-05-06 (4 years ago)
Launch vehicle
FALCON 9
Launch site
Air Force Eastern Test Range (AFETR)
Object type
Payload
Rocket body
Debris
Shape & HBR
Box + 1 Pan, 10.1 m
Radar Cross Section
13.562 m², Large (>1 m²)

Expand to show TLE details & history
Last TLE update: 1 day ago

TLE from 1 day ago
0 STARLINK-3908
1 52491U 22049AS  25346.53079599 -.00000198  00000-0  56293-5 0  9994
2 52491  53.2192  80.3909 0001440  81.2708 278.8447 15.08837671199239
Epoch: 2025-12-12T12:44Z
TLE epoch observation values (Epoch: 2025-12-12T12:44:20.773Z)
Latitude
-0.00004°
Longitude
167.83322°
Altitude
540.495 km
Speed
7.593 km/s
True Right ascension
05h 21m 33s
True Declination
0° 00' 00"
Sunlit
Object was in full shadow at epoch
Visualization orbit readout
Latitude
Unknown
Longitude
Unknown
Altitude
Unknown
Speed
Unknown
Apparent Right ascension
Unknown
Apparent Declination
Unknown
Sunlit
N/A
Visualization observer readout
Local Sidereal Time
12:53:59
Azimuth
Unknown
Elevation
Unknown
Doppler factor
Unknown
Orbital elements
Apogee altitude
540.991 km
Perigee altitude
538.999 km
Semi-major axis
6,918.132 km
Eccentricity
0.00014
Inclination
53.2192°
RAAN
80.3909°
Arg. of periapsis
81.2708°
True anomaly
278.82839°
Mean anomaly
278.8447°
Eccentric anomaly
278.83655°
Mean motion
3.7719 °/min
Orbital period
95.44 mins
BSTAR
0.0000056293
Loading maneuver chart data...
Computing Atmospheric mass density...
Loading historical data...
Loading historical data...
Loading historical data...
Loading historical data...
Loading historical data...
Loading historical data...
Loading historical data...

Documentation

Showing up to 5 results
|